Time,TemperatureF,DewpointF,PressureIn,WindDirection,WindDirectionDegrees,WindSpeedMPH,WindSpeedGustMPH,Humidity,HourlyPrecipIn,Conditions,Clouds,dailyrainin,SoftwareType,DateUTC
2013-07-12 00:09:00,64.7,64.0,29.79,South,176,0.0,-999.0,97,-99.99,,,0.00,weatherlink.com 1.10,2013-07-12 04:09:00,
2013-07-12 00:24:00,64.3,64.0,29.80,South,176,0.0,-999.0,98,-99.99,,,0.00,weatherlink.com 1.10,2013-07-12 04:24:00,
2013-07-12 00:39:00,64.0,64.0,29.80,South,176,0.0,-999.0,99,-99.99,,,0.00,weatherlink.com 1.10,2013-07-12 04:39:00,
2013-07-12 00:54:00,64.0,64.0,29.80,South,176,0.0,-999.0,99,-99.99,,,0.00,weatherlink.com 1.10,2013-07-12 04:54:00,
2013-07-12 01:09:00,63.9,64.0,29.79,South,176,0.0,-999.0,99,-99.99,,,0.00,weatherlink.com 1.10,2013-07-12 05:09:00,
2013-07-12 01:25:00,63.5,64.0,29.79,South,176,0.0,-999.0,100,-99.99,,,0.00,weatherlink.com 1.10,2013-07-12 05:25:00,
2013-07-12 01:40:00,63.4,63.0,29.78,South,176,0.0,-999.0,100,-99.99,,,0.00,weatherlink.com 1.10,2013-07-12 05:40:00,
2013-07-12 01:55:00,63.2,63.0,29.79,South,176,0.0,-999.0,100,-99.99,,,0.00,weatherlink.com 1.10,2013-07-12 05:55:00,
2013-07-12 02:10:00,63.2,63.0,29.79,South,176,0.0,-999.0,100,-99.99,,,0.00,weatherlink.com 1.10,2013-07-12 06:10:00,
2013-07-12 02:25:00,63.2,63.0,29.79,South,176,0.0,-999.0,100,-99.99,,,0.00,weatherlink.com 1.10,2013-07-12 06:25:00,
2013-07-12 02:40:00,63.2,63.0,29.79,South,176,0.0,-999.0,100,-99.99,,,0.00,weatherlink.com 1.10,2013-07-12 06:40:00,
2013-07-12 02:55:00,63.4,63.0,29.79,South,176,0.0,-999.0,100,-99.99,,,0.00,weatherlink.com 1.10,2013-07-12 06:55:00,
2013-07-12 03:10:00,63.5,64.0,29.79,South,188,0.0,-999.0,100,-99.99,,,0.00,weatherlink.com 1.10,2013-07-12 07:10:00,
2013-07-12 03:25:00,63.4,63.0,29.78,South,188,0.0,-999.0,100,-99.99,,,0.00,weatherlink.com 1.10,2013-07-12 07:25:00,
2013-07-12 03:40:00,63.1,63.0,29.78,South,188,0.0,-999.0,100,-99.99,,,0.00,weatherlink.com 1.10,2013-07-12 07:40:00,
2013-07-12 03:55:00,62.7,63.0,29.78,South,188,0.0,-999.0,100,-99.99,,,0.00,weatherlink.com 1.10,2013-07-12 07:55:00,
2013-07-12 04:10:00,62.9,63.0,29.78,South,188,0.0,-999.0,100,-99.99,,,0.00,weatherlink.com 1.10,2013-07-12 08:10:00,
2013-07-12 04:25:00,63.4,63.0,29.78,South,188,0.0,-999.0,100,-99.99,,,0.00,weatherlink.com 1.10,2013-07-12 08:25:00,
2013-07-12 04:40:00,63.4,63.0,29.78,South,188,0.0,-999.0,100,-99.99,,,0.00,weatherlink.com 1.10,2013-07-12 08:40:00,
2013-07-12 04:55:00,63.4,63.0,29.78,South,188,0.0,-999.0,100,-99.99,,,0.00,weatherlink.com 1.10,2013-07-12 08:55:00,
2013-07-12 05:10:00,63.2,63.0,29.78,South,188,0.0,-999.0,100,-99.99,,,0.00,weatherlink.com 1.10,2013-07-12 09:10:00,
2013-07-12 05:25:00,63.2,63.0,29.78,South,188,0.0,-999.0,100,-99.99,,,0.00,weatherlink.com 1.10,2013-07-12 09:25:00,
2013-07-12 05:40:00,63.1,63.0,29.79,South,188,0.0,-999.0,100,-99.99,,,0.00,weatherlink.com 1.10,2013-07-12 09:40:00,
2013-07-12 05:55:00,63.2,63.0,29.79,South,188,0.0,-999.0,100,-99.99,,,0.00,weatherlink.com 1.10,2013-07-12 09:55:00,
2013-07-12 06:10:00,63.2,63.0,29.80,South,188,0.0,-999.0,100,-99.99,,,0.01,weatherlink.com 1.10,2013-07-12 10:10:00,
2013-07-12 06:25:00,62.9,63.0,29.80,South,188,0.0,-999.0,100,-99.99,,,0.01,weatherlink.com 1.10,2013-07-12 10:25:00,
2013-07-12 06:40:00,62.6,63.0,29.80,South,188,0.0,-999.0,100,-99.99,,,0.01,weatherlink.com 1.10,2013-07-12 10:40:00,
2013-07-12 06:55:00,62.3,62.0,29.80,South,188,0.0,-999.0,100,-99.99,,,0.01,weatherlink.com 1.10,2013-07-12 10:55:00,
2013-07-12 07:10:00,62.4,62.0,29.81,South,188,0.0,-999.0,100,-99.99,,,0.01,weatherlink.com 1.10,2013-07-12 11:10:00,
2013-07-12 07:25:00,62.9,63.0,29.81,South,188,0.0,-999.0,100,-99.99,,,0.01,weatherlink.com 1.10,2013-07-12 11:25:00,
2013-07-12 07:40:00,62.9,63.0,29.81,South,188,0.0,-999.0,100,-99.99,,,0.01,weatherlink.com 1.10,2013-07-12 11:40:00,
2013-07-12 07:55:00,63.4,63.0,29.81,ESE,116,0.0,-999.0,100,-99.99,,,0.01,weatherlink.com 1.10,2013-07-12 11:55:00,
2013-07-12 08:10:00,63.5,64.0,29.82,East,88,0.0,-999.0,100,-99.99,,,0.01,weatherlink.com 1.10,2013-07-12 12:10:00,
2013-07-12 08:25:00,63.7,64.0,29.81,East,95,0.0,-999.0,100,-99.99,,,0.01,weatherlink.com 1.10,2013-07-12 12:25:00,
2013-07-12 08:40:00,64.2,64.0,29.83,NE,54,0.0,-999.0,100,-99.99,,,0.01,weatherlink.com 1.10,2013-07-12 12:40:00,
2013-07-12 08:55:00,64.3,64.0,29.83,ENE,71,0.0,-999.0,100,-99.99,,,0.01,weatherlink.com 1.10,2013-07-12 12:55:00,
2013-07-12 09:10:00,64.8,65.0,29.83,ENE,78,0.0,-999.0,100,-99.99,,,0.01,weatherlink.com 1.10,2013-07-12 13:10:00,
2013-07-12 09:25:00,65.8,64.0,29.83,ENE,73,0.0,-999.0,95,-99.99,,,0.01,weatherlink.com 1.10,2013-07-12 13:25:00,
2013-07-12 09:40:00,67.8,64.0,29.83,North,353,0.0,-999.0,88,-99.99,,,0.01,weatherlink.com 1.10,2013-07-12 13:40:00,
2013-07-12 09:55:00,70.6,64.0,29.83,NW,325,0.0,-999.0,79,-99.99,,,0.01,weatherlink.com 1.10,2013-07-12 13:55:00,
2013-07-12 10:10:00,73.3,68.0,29.82,NNW,328,1.0,-999.0,83,-99.99,,,0.01,weatherlink.com 1.10,2013-07-12 14:10:00,
2013-07-12 10:25:00,74.2,65.0,29.81,NW,313,1.0,-999.0,74,-99.99,,,0.01,weatherlink.com 1.10,2013-07-12 14:25:00,
2013-07-12 10:40:00,75.4,67.0,29.81,NW,323,0.0,-999.0,74,-99.99,,,0.01,weatherlink.com 1.10,2013-07-12 14:40:00,
2013-07-12 10:55:00,75.6,66.0,29.81,WNW,295,0.0,-999.0,72,-99.99,,,0.01,weatherlink.com 1.10,2013-07-12 14:55:00,
2013-07-12 11:10:00,74.0,64.0,29.81,WNW,295,0.0,-999.0,72,-99.99,,,0.01,weatherlink.com 1.10,2013-07-12 15:10:00,
2013-07-12 11:25:00,73.9,67.0,29.82,NNW,330,0.0,-999.0,78,-99.99,,,0.01,weatherlink.com 1.10,2013-07-12 15:25:00,
2013-07-12 11:40:00,75.3,68.0,29.82,ESE,109,0.0,-999.0,79,-99.99,,,0.01,weatherlink.com 1.10,2013-07-12 15:40:00,
2013-07-12 11:55:00,75.4,68.0,29.81,NW,325,0.0,-999.0,77,-99.99,,,0.01,weatherlink.com 1.10,2013-07-12 15:55:00,
2013-07-12 12:10:00,73.5,68.0,29.82,NE,45,0.0,-999.0,83,-99.99,,,0.01,weatherlink.com 1.10,2013-07-12 16:10:00,
2013-07-12 12:25:00,73.9,67.0,29.83,NE,35,0.0,-999.0,80,-99.99,,,0.01,weatherlink.com 1.10,2013-07-12 16:25:00,
2013-07-12 12:40:00,74.9,67.0,29.83,West,271,0.0,-999.0,76,-99.99,,,0.01,weatherlink.com 1.10,2013-07-12 16:40:00,
2013-07-12 12:55:00,75.4,69.0,29.82,North,0,0.0,-999.0,81,-99.99,,,0.01,weatherlink.com 1.10,2013-07-12 16:55:00,
2013-07-12 13:25:00,76.8,67.0,29.81,NW,319,0.0,-999.0,71,-99.99,,,0.01,weatherlink.com 1.10,2013-07-12 17:25:00,
2013-07-12 13:40:00,73.5,67.0,29.82,WSW,247,0.0,-999.0,81,-99.99,,,0.01,weatherlink.com 1.10,2013-07-12 17:40:00,
2013-07-12 14:10:00,73.0,66.0,29.83,WSW,247,0.0,-999.0,78,-99.99,,,0.01,weatherlink.com 1.10,2013-07-12 18:10:00,
2013-07-12 14:25:00,72.0,65.0,29.82,WSW,247,0.0,-999.0,78,-99.99,,,0.01,weatherlink.com 1.10,2013-07-12 18:25:00,
2013-07-12 14:40:00,71.6,64.0,29.82,WSW,247,0.0,-999.0,78,-99.99,,,0.01,weatherlink.com 1.10,2013-07-12 18:40:00,
2013-07-12 14:55:00,71.5,64.0,29.83,ENE,59,0.0,-999.0,78,-99.99,,,0.01,weatherlink.com 1.10,2013-07-12 18:55:00,
2013-07-12 15:10:00,74.2,67.0,29.83,NNW,347,0.0,-999.0,78,-99.99,,,0.01,weatherlink.com 1.10,2013-07-12 19:10:00,
2013-07-12 16:26:00,73.0,67.0,29.82,NNW,333,0.0,-999.0,81,-99.99,,,0.01,weatherlink.com 1.10,2013-07-12 20:26:00,
2013-07-12 16:56:00,69.4,64.0,29.82,NW,319,0.0,-999.0,83,-99.99,,,0.01,weatherlink.com 1.10,2013-07-12 20:56:00,
2013-07-12 17:26:00,69.1,64.0,29.83,NW,312,0.0,-999.0,84,-99.99,,,0.01,weatherlink.com 1.10,2013-07-12 21:26:00,
2013-07-12 17:41:00,69.1,63.0,29.85,NW,312,0.0,-999.0,80,-99.99,,,0.01,weatherlink.com 1.10,2013-07-12 21:41:00,
2013-07-12 17:56:00,68.9,61.0,29.86,NW,312,0.0,-999.0,76,-99.99,,,0.01,weatherlink.com 1.10,2013-07-12 21:56:00,
2013-07-12 18:11:00,68.8,61.0,29.85,NW,312,0.0,-999.0,77,-99.99,,,0.01,weatherlink.com 1.10,2013-07-12 22:11:00,
2013-07-12 18:26:00,68.1,61.0,29.85,ENE,61,0.0,-999.0,77,-99.99,,,0.01,weatherlink.com 1.10,2013-07-12 22:26:00,
2013-07-12 18:41:00,67.1,65.0,29.86,NNW,346,0.0,-999.0,92,-99.99,,,0.01,weatherlink.com 1.10,2013-07-12 22:41:00,
2013-07-12 18:56:00,66.3,65.0,29.86,NNW,333,0.0,-999.0,95,-99.99,,,0.01,weatherlink.com 1.10,2013-07-12 22:56:00,
2013-07-12 19:11:00,65.5,64.0,29.86,WNW,289,1.0,-999.0,95,-99.99,,,0.01,weatherlink.com 1.10,2013-07-12 23:11:00,
2013-07-12 19:26:00,65.0,64.0,29.87,NNW,340,0.0,-999.0,97,-99.99,,,0.01,weatherlink.com 1.10,2013-07-12 23:26:00,
2013-07-12 19:41:00,63.9,63.0,29.88,SE,133,0.0,-999.0,96,-99.99,,,0.03,weatherlink.com 1.10,2013-07-12 23:41:00,
2013-07-12 19:56:00,62.7,62.0,29.90,SE,133,0.0,-999.0,96,-99.99,,,0.10,weatherlink.com 1.10,2013-07-12 23:56:00,
2013-07-12 20:11:00,62.4,62.0,29.90,SE,133,0.0,-999.0,98,-99.99,,,0.19,weatherlink.com 1.10,2013-07-13 00:11:00,
2013-07-12 20:26:00,62.4,62.0,29.89,SE,133,0.0,-999.0,99,-99.99,,,0.21,weatherlink.com 1.10,2013-07-13 00:26:00,
2013-07-12 20:41:00,62.4,62.0,29.89,North,353,0.0,-999.0,100,-99.99,,,0.22,weatherlink.com 1.10,2013-07-13 00:41:00,
2013-07-12 20:56:00,62.6,63.0,29.89,NNW,340,0.0,-999.0,100,-99.99,,,0.23,weatherlink.com 1.10,2013-07-13 00:56:00,
2013-07-12 21:11:00,62.6,63.0,29.89,ENE,66,0.0,-999.0,100,-99.99,,,0.23,weatherlink.com 1.10,2013-07-13 01:11:00,
2013-07-12 21:26:00,62.6,63.0,29.90,WNW,302,0.0,-999.0,100,-99.99,,,0.23,weatherlink.com 1.10,2013-07-13 01:26:00,
2013-07-12 22:11:00,62.7,63.0,29.89,WNW,285,0.0,-999.0,100,-99.99,,,0.31,weatherlink.com 1.10,2013-07-13 02:11:00,
2013-07-12 22:26:00,62.6,63.0,29.89,NW,312,0.0,-999.0,100,-99.99,,,0.31,weatherlink.com 1.10,2013-07-13 02:26:00,
2013-07-12 22:41:00,62.4,62.0,29.89,SSE,160,0.0,-999.0,100,-99.99,,,0.32,weatherlink.com 1.10,2013-07-13 02:41:00,
2013-07-12 22:56:00,62.3,62.0,29.89,WNW,301,0.0,-999.0,100,-99.99,,,0.32,weatherlink.com 1.10,2013-07-13 02:56:00,
2013-07-12 23:11:00,62.3,62.0,29.91,SE,145,0.0,-999.0,100,-99.99,,,0.32,weatherlink.com 1.10,2013-07-13 03:11:00,
2013-07-12 23:26:00,62.0,62.0,29.92,ESE,106,0.0,-999.0,100,-99.99,,,0.33,weatherlink.com 1.10,2013-07-13 03:26:00,
2013-07-12 23:56:00,61.8,62.0,29.92,WNW,296,0.0,-999.0,100,-99.99,,,0.33,weatherlink.com 1.10,2013-07-13 03:56:00,